Find STARLINK-37219

NORAD ID: 68843 Int'l Des: 2026-094E Owner: SPXS Country: US Constellation: starlink operational
LEOCIRCULARRETROGRADE

当前视图

正在加载3D地球...

About STARLINK-37219

STARLINK-37219 (NORAD 68843) is a starlink constellation satellite (v2 mini) launched Apr 26, 2026 by SPXS of US. It operates in LEO, CIRCULAR, RETROGRADE orbit with a mass of 575.00 kg.

关于 STARLINK-37219

正在加载描述...

即将过境

Passes for default location (London). Set your location on the main map for personalized predictions.

高度历史

Loading altitude history...

两行轨道根数

1 68843U 26094E 26166.96781209 .00110099 00000-0 72829-3 0 9994
2 68843 97.2838 182.9876 0001409 92.4060 267.7367 15.75229770 7969
Epoch: Jun 15, 2026 • Age: 8 hours

当前状态

高度 348.6 km
速度 7.70 km/s
星下点 -8.51°S, 177.64°E
发射日期 Apr 26, 2026
运行时间 0.1 years
类型 internet

技术详情

分类 Payload
质量 575.00 kg
干质量 530.00 kg
总质量 575.00 kg
长度 0.30 m
直径 4.10 m
跨度 29.00 m
形状 Box + pan
制造商 SPXS
平台类型 Starlink V2MO
阶段状态 In Orbit
所有者/国家 SPXS/US

Most Searched